Weather in Lava

Russia / Ulyanovsk Oblast     54°28′47″N   46°54′06″E
temp.,
°C
wind,
m/s
gust,
m/s
humid.,
%
clouds,
%
prec.,
mm/h
press.,
hPa
HPBL,
m
20 june, sun
sun2001:00+16w23905 0.0 102347
04:00+15wsw22920 0.0 102416
07:00+18w24790 0.0 1023167
10:00+24wnw34640 0.0 1023537
13:00+27wnw33552 0.0 10231210
16:00+28wnw33530 0.0 10221499
19:00+26wnw23700 0.0 1021147
22:00+21wnw11870 0.0 102211
21 june, mon
mon2101:00+19ssw11900 0.0 102211
04:00+18sw11920 0.0 102211
07:00+21sw12823 0.0 1023117
10:00+26wsw22645 0.0 1022644
13:00+28wsw33535 0.0 10221594
16:00+29w225018 0.0 10221730
19:00+27w236862 0.0 1021126
22:00+22wnw1181100 0.0 102211
22 june, tue
tue2201:00+20w008594 0.0 102211
04:00+19wsw11885 0.0 102311
07:00+22w117935 0.0 102394
10:00+27w116345 0.0 1023533
13:00+29wsw214945 0.0 10231589
16:00+30wsw214525 0.0 10221811
19:00+28w22640 0.0 1021110
22:00+22nne117512 0.0 102211
23 june, wed
wed2301:00+20w00835 0.0 102211
04:00+19wsw11850 0.0 102211
07:00+22w11770 0.0 102284
10:00+27wnw22600 0.0 1022656
13:00+30w23470 0.0 10222005
16:00+30w33450 0.0 10212085
19:00+28wnw24650 0.0 1021164
22:00+23n11750 0.0 102111
24 june, thu
thu2401:00+21w11800 0.0 102111
04:00+20wsw11860 0.0 102111
07:00+23wsw12780 0.0 1021138
10:00+28wnw34620 0.0 1020629
13:00+31wnw34501 0.3 10191703
16:00+32wnw444642 0.4 10182050
19:00+28nw2369100 0.1 101879
22:00+24w11826 0.1 101711